Salisbury, MD

6:25 AM EDT on July 23, 2017 (GMT -0400)
Salisbury-Ocean City Wicomico Regional

Weather History for KSBY - October, 2012

Change the Weather History Date:

Friday, October 26, 2012

  Actual Average Record
Temperature  
Mean Temperature 67 °F 54 °F  
Max Temperature 77 °F 65 °F 81 °F (1939)
Min Temperature 56 °F 43 °F 26 °F (1937)
Degree Days  
Heating Degree Days 0 11  
Month to date heating degree days 124 206  
Since 1 July heating degree days 143 254  
Cooling Degree Days 2 0  
Month to date cooling degree days 70 22  
Year to date cooling degree days 1732 1147  
Growing Degree Days 15 (Base 50)    
Moisture  
Dew Point 58 °F    
Average Humidity 76    
Maximum Humidity 97    
Minimum Humidity 54    
Precipitation  
Precipitation 0.00 in 0.10 in 1.87 in (1943)
Month to date precipitation 1.67 2.91  
Year to date precipitation 31.97 37.96  
Snow  
Snow 0.00 in 0.00 in 0.00 in (2002)
Month to date snowfall 0.0 0.0  
Since 1 July snowfall 0.0 0.0  
Snow Depth 0.00 in    
Sea Level Pressure  
Sea Level Pressure 30.14 in    
Wind  
Wind Speed 6 mph (NE)    
Max Wind Speed 14 mph    
Max Gust Speed 17 mph    
Visibility 5 miles    
Events Fog    
T = Trace of Precipitation, MM = Missing Value Source: NWS Daily Summary

Daily Weather History Graph

Daily Weather History Graph

Search for Another Location

Airport or City:

Trip Planner

Search our weather history database for the weather conditions in past years. The results will help you decide how hot, cold, wet, or windy it might be!

Date:

Astronomy

Oct. 26, 2012 Rise Set
Actual Time 7:22 AM EDT 6:08 PM EDT
Civil Twilight 6:55 AM EDT 6:35 PM EDT
Nautical Twilight 6:24 AM EDT 7:06 PM EDT
Astronomical Twilight 5:53 AM EDT 7:37 PM EDT
Moon 4:21 PM EDT (10/26) 4:18 AM EDT (10/26)
Length of Visible Light 11h 40m
Length of Day
10h 46m
Waxing Gibbous, 91% of the Moon is Illuminated
Oct 26
Waxing Gibbous
Oct 29
Full
Nov 6
Last Quarter
Nov 13
New
Nov 20
First Quarter

Hourly Weather History & Observations

Time (EDT) Temp. Dew Point Humidity Pressure Visibility Wind Dir Wind Speed Gust Speed Precip Events Conditions
12:12 AM 60.8 °F 55.4 °F 82% 30.17 in 0.8 mi Calm Calm - N/A   Mist
12:23 AM 60.8 °F 55.4 °F 82% 30.16 in 1.2 mi Calm Calm - N/A   Scattered Clouds
12:27 AM 60.8 °F 55.4 °F 82% 30.16 in 2.5 mi Calm Calm - N/A   Mostly Cloudy
12:33 AM 60.8 °F 57.2 °F 88% 30.16 in 1.2 mi Calm Calm - N/A   Mostly Cloudy
12:52 AM 60.8 °F 57.2 °F 88% 30.16 in 0.2 mi Calm Calm - N/A Fog Fog
12:54 AM 60.1 °F 57.0 °F 90% 30.17 in 0.2 mi Calm Calm - N/A Fog Fog
1:38 AM 59.0 °F 55.4 °F 88% 30.16 in 0.5 mi Calm Calm - N/A Fog Fog
1:46 AM 59.0 °F 55.4 °F 88% 30.16 in 0.2 mi Calm Calm - N/A Fog Fog
1:54 AM 59.0 °F 57.0 °F 93% 30.17 in 0.2 mi Calm Calm - N/A Fog Fog
2:28 AM 57.2 °F 53.6 °F 88% 30.16 in 0.5 mi Calm Calm - N/A Fog Fog
2:39 AM 55.4 °F 53.6 °F 94% 30.16 in 0.2 mi Calm Calm - N/A Fog Fog
2:54 AM 55.9 °F 53.1 °F 90% 30.16 in 0.5 mi Calm Calm - N/A Fog Fog
3:26 AM 55.4 °F 53.6 °F 94% 30.15 in 1.0 mi NE 4.6 mph - N/A   Mist
3:33 AM 57.2 °F 55.4 °F 94% 30.15 in 0.5 mi ENE 4.6 mph - N/A Fog Fog
3:41 AM 57.2 °F 53.6 °F 88% 30.15 in 0.2 mi ENE 3.5 mph - N/A Fog Fog
3:52 AM 57.2 °F 53.6 °F 88% 30.15 in 0.5 mi NE 4.6 mph - N/A Fog Fog
3:54 AM 57.0 °F 54.0 °F 89% 30.16 in 0.2 mi NE 3.5 mph - N/A Fog Fog
4:01 AM 57.2 °F 53.6 °F 88% 30.15 in 0.2 mi Calm Calm - N/A Fog Fog
4:18 AM 57.2 °F 55.4 °F 94% 30.15 in 1.0 mi Calm Calm - N/A   Overcast
4:27 AM 59.0 °F 55.4 °F 88% 30.15 in 0.8 mi Calm Calm - N/A   Overcast
4:44 AM 57.2 °F 55.4 °F 94% 30.15 in 0.2 mi Calm Calm - N/A Fog Fog
4:54 AM 57.9 °F 55.0 °F 90% 30.15 in 0.2 mi Calm Calm - N/A Fog Fog
5:47 AM 59.0 °F 57.2 °F 94% 30.16 in 0.5 mi Calm Calm - N/A Fog Fog
5:54 AM 59.0 °F 57.0 °F 93% 30.16 in 0.5 mi Calm Calm - N/A Fog Fog
6:49 AM 60.8 °F 57.2 °F 88% 30.15 in 1.5 mi Calm Calm - N/A   Overcast
6:54 AM 60.1 °F 57.0 °F 90% 30.16 in 1.0 mi NE 3.5 mph - N/A   Overcast
7:43 AM 60.8 °F 57.2 °F 88% 30.15 in 0.5 mi NE 4.6 mph - N/A Fog Fog
7:54 AM 61.0 °F 59.0 °F 93% 30.16 in 1.2 mi NE 4.6 mph - N/A   Overcast
7:58 AM 60.8 °F 59.0 °F 94% 30.15 in 3.0 mi NE 4.6 mph - N/A   Overcast
8:11 AM 62.6 °F 59.0 °F 88% 30.16 in 6.0 mi NNE 4.6 mph - N/A   Overcast
8:27 AM 62.6 °F 60.8 °F 94% 30.16 in 4.0 mi NE 4.6 mph - N/A   Overcast
8:54 AM 63.0 °F 60.1 °F 90% 30.17 in 7.0 mi NNE 4.6 mph - N/A   Overcast
9:02 AM 62.6 °F 60.8 °F 94% 30.16 in 7.0 mi Variable 3.5 mph - N/A   Overcast
9:54 AM 66.9 °F 62.1 °F 84% 30.19 in 9.0 mi NNE 6.9 mph - N/A   Overcast
10:54 AM 70.0 °F 63.0 °F 78% 30.19 in 10.0 mi North 5.8 mph - N/A   Overcast
11:01 AM 69.8 °F 62.6 °F 78% 30.18 in 10.0 mi NNW 5.8 mph - N/A   Overcast
11:15 AM 71.6 °F 62.6 °F 73% 30.17 in 10.0 mi NNW 6.9 mph - N/A   Overcast
11:25 AM 71.6 °F 62.6 °F 73% 30.17 in 10.0 mi North 8.1 mph - N/A   Mostly Cloudy
11:38 AM 71.6 °F 59.0 °F 64% 30.16 in 10.0 mi ENE 8.1 mph - N/A   Scattered Clouds
11:54 AM 73.9 °F 59.0 °F 59% 30.16 in 10.0 mi East 9.2 mph - N/A   Clear
12:54 PM 75.0 °F 57.9 °F 55% 30.14 in 10.0 mi East 10.4 mph - N/A   Partly Cloudy
1:37 PM 75.2 °F 59.0 °F 57% 30.11 in 10.0 mi ENE 11.5 mph - N/A   Mostly Cloudy
1:54 PM 73.9 °F 57.9 °F 57% 30.11 in 10.0 mi ENE 12.7 mph - N/A   Mostly Cloudy
2:06 PM 73.4 °F 59.0 °F 61% 30.10 in 10.0 mi East 10.4 mph - N/A   Scattered Clouds
2:17 PM 73.4 °F 59.0 °F 61% 30.10 in 10.0 mi East 10.4 mph - N/A   Mostly Cloudy
2:54 PM 73.0 °F 59.0 °F 61% 30.09 in 10.0 mi East 10.4 mph - N/A   Mostly Cloudy
3:02 PM 73.4 °F 59.0 °F 61% 30.08 in 10.0 mi East 10.4 mph - N/A   Scattered Clouds
3:12 PM 73.4 °F 60.8 °F 65% 30.08 in 10.0 mi East 9.2 mph - N/A   Mostly Cloudy
3:54 PM 71.1 °F 59.0 °F 66% 30.08 in 10.0 mi East 10.4 mph - N/A   Mostly Cloudy
4:11 PM 71.6 °F 59.0 °F 64% 30.08 in 10.0 mi East 10.4 mph - N/A   Scattered Clouds
4:54 PM 70.0 °F 59.0 °F 68% 30.07 in 10.0 mi East 8.1 mph - N/A   Clear
5:54 PM 68.0 °F 57.9 °F 70% 30.06 in 10.0 mi East 6.9 mph - N/A   Clear
6:54 PM 64.0 °F 57.9 °F 80% 30.08 in 10.0 mi NE 5.8 mph - N/A   Clear
7:54 PM 64.0 °F 57.9 °F 80% 30.09 in 10.0 mi NNE 3.5 mph - N/A   Clear
8:54 PM 62.1 °F 57.9 °F 86% 30.08 in 10.0 mi NE 5.8 mph - N/A   Clear
9:54 PM 63.0 °F 57.9 °F 84% 30.08 in 10.0 mi NE 4.6 mph - N/A   Clear
10:54 PM 62.1 °F 57.9 °F 86% 30.06 in 10.0 mi NNE 4.6 mph - N/A   Clear
11:54 PM 62.1 °F 57.9 °F 86% 30.05 in 10.0 mi NE 5.8 mph - N/A   Clear